Probability
0 0 0 0 0 0 0 0 0 0 0 0 0 0 2 4 8 12 25 47 67 78 83 82 76 74 77 81 87 92 94 94 92 88 86 84 70 43 26 26 30 25 15 9
0 0 0 0 0 0 0 0 0 0 0 0 0 1 3 7 13 22 38 57 71 76 75 66 56 54 58 64 71 79 85 86 84 82 81 78 65 43 28 30 36 34 25 19
0 0 0 0 0 0 0 0 0 0 0 0 0 1 6 14 26 42 57 66 68 66 58 45 34 33 39 46 53 62 71 76 78 80 79 72 63 50 39 42 50 52 42 31
0 0 0 0 0 0 0 0 0 0 0 0 0 1 7 22 43 60 68 66 57 48 40 31 25 26 33 40 48 56 64 71 77 83 82 76 69 61 55 58 66 65 50 38
0 0 0 0 0 0 0 0 0 0 0 0 0 1 7 27 54 67 64 55 43 31 25 23 22 23 27 34 43 52 60 68 77 84 85 79 72 68 67 71 76 71 56 45
0 0 0 0 0 0 0 0 0 0 0 0 0 0 8 31 58 63 51 38 27 17 13 13 14 14 15 20 28 38 48 58 66 74 78 77 75 74 74 77 79 76 69 64
0 0 0 0 0 0 0 0 0 0 1 0 0 4 17 37 49 45 31 19 11 6 4 4 4 5 5 7 11 19 29 37 42 48 57 65 70 73 77 79 80 82 82 81
0 0 0 0 0 0 0 0 0 0 0 0 3 14 29 33 29 20 11 5 2 0 0 0 0 0 1 1 3 6 12 16 17 20 29 39 48 57 67 76 82 86 87 88
0 0 0 0 0 0 0 0 0 0 0 0 6 22 32 28 15 5 1 0 0 0 0 0 0 0 0 0 0 1 3 4 5 6 9 14 21 30 42 56 69 77 82 84
0 0 0 0 0 0 0 0 0 0 0 0 4 17 33 31 15 3 0 0 0 0 0 0 0 0 0 0 0 0 0 1 1 1 2 3 5 9 16 27 38 50 61 67
0 0 0 0 0 0 0 0 0 0 0 0 1 13 31 31 14 3 0 0 0 0 0 0 0 0 0 0 0 0 0 1 0 0 0 0 1 1 4 7 11 19 30 37
0 0 0 0 0 0 0 0 0 0 0 0 2 10 19 16 6 1 0 0 0 0 0 0 0 0 0 0 0 0 0 0 0 0 0 0 0 0 1 1 1 4 8 11
0 0 0 0 0 0 0 0 0 0 0 0 1 4 5 4 1 0 0 0 0 0 0 0 0 0 0 0 0 0 0 0 0 0 0 0 0 0 0 0 0 1 1 2
0 0 0 0 0 0 0 0 0 1 1 0 0 0 1 1 0 0 0 0 0 0 0 0 0 0 0 0 1 2 2 2 2 1 0 1 1 1 0 0 0 0 0 1
0 0 0 0 0 0 0 1 1 1 1 0 0 0 0 1 0 0 0 0 0 0 0 0 0 0 0 1 3 5 6 6 5 3 1 1 2 2 0 0 0 0 0 0
0 0 0 0 0 0 1 2 1 1 1 0 0 0 0 0 0 0 0 0 0 0 0 0 0 1 2 3 4 6 6 7 7 4 2 1 2 1 0 0 0 0 0 0
0 0 0 0 0 1 1 1 0 0 0 0 0 0 0 0 0 0 0 0 0 0 0 0 0 1 3 3 4 5 4 4 5 4 3 3 2 1 0 0 1 2 2 1
0 0 0 0 0 0 0 0 0 0 0 0 0 0 0 0 0 0 0 0 0 0 0 0 0 1 1 1 2 2 2 1 2 3 3 3 3 1 1 2 4 6 5 3
0 0 0 0 0 0 0 0 0 0 0 0 0 0 0 0 0 0 0 0 0 0 0 0 0 0 0 0 1 1 0 0 1 1 1 1 1 1 1 3 6 7 6 4
0 0 0 0 0 0 0 0 0 0 0 0 0 0 0 0 0 0 0 0 0 0 0 0 0 1 2 5 6 4 1 0 0 0 0 0 0 0 0 2 4 4 3 2
0 0 0 0 0 0 0 0 0 0 0 0 0 0 0 0 0 0 0 0 0 0 0 0 1 2 6 11 12 7 2 0 0 0 0 0 0 0 0 1 2 2 1 1
0 0 0 0 0 0 0 0 0 0 0 0 0 0 0 0 0 0 0 0 0 0 0 0 1 3 7 11 10 5 1 0 0 0 0 0 0 0 0 0 0 0 0 0
0 0 0 0 0 0 0 0 0 0 0 0 0 0 0 0 0 0 0 0 0 0 0 0 1 2 4 6 5 1 0 0 0 0 0 0 0 0 0 0 0 0 0 0
0 0 0 0 0 0 0 0 0 0 0 0 0 0 0 0 0 0 0 0 0 0 0 0 0 1 1 1 1 0 0 0 0 0 0 0 0 0 0 0 0 0 0 0
0 0 0 0 0 0 0 0 0 0 0 0 0 0 0 0 0 0 0 0 0 0 0 0 0 0 0 0 0 0 0 0 0 0 0 0 0 0 0 0 0 0 0 0
0 0 0 0 0 0 0 0 0 0 0 0 0 0 0 0 0 0 0 0 0 0 0 0 0 0 0 0 0 0 0 0 0 0 0 0 0 0 0 0 0 0 0 0
Wind_Speed
8 9 7 6 8 12 14 14 13 9 3 1 7 12 13 9 6 6 6 3 0 2 3 1 2 3 2 4 8 8 7 6 4 3 4 4 3 3 2 2 4 4 1 1
3 7 8 6 6 9 11 11 11 11 8 7 9 12 13 10 8 3 4 7 8 10 15 17 17 13 14 12 7 6 7 5 3 2 1 1 1 1 1 2 4 3 2 1
1 5 6 8 8 9 9 10 10 10 10 11 14 16 14 11 2 8 14 18 19 17 15 13 12 12 14 15 14 8 5 3 2 2 2 1 2 1 2 2 3 4 3 2
5 4 6 9 8 9 8 8 10 12 12 13 15 12 6 2 9 13 15 16 16 15 13 11 11 10 9 9 9 9 8 4 3 1 2 3 2 2 2 1 2 4 4 3
7 8 8 8 7 8 10 10 11 14 15 16 15 13 1 8 10 13 14 15 15 16 14 14 14 11 10 10 9 9 9 9 8 7 5 4 4 4 3 2 0 2 3 5
16 11 7 6 7 7 9 12 14 13 9 10 13 14 3 4 10 11 12 13 14 15 15 15 14 12 11 11 10 10 9 10 10 10 8 7 7 7 7 6 5 3 3 4
13 10 7 6 7 6 10 11 10 9 3 4 7 10 0 7 11 12 13 12 12 13 13 13 13 12 11 12 11 10 10 10 10 11 11 9 8 7 6 6 6 6 4 3
4 5 7 6 6 8 10 10 10 13 13 6 10 6 8 10 12 12 11 10 11 11 10 10 10 10 9 10 10 9 9 8 8 8 8 7 8 6 6 7 6 6 5 4
6 7 8 8 5 6 7 9 14 14 14 13 4 9 8 9 8 8 9 9 9 9 9 9 8 8 7 7 6 6 6 5 6 6 5 4 6 6 7 7 7 6 6 7
10 12 12 11 8 6 5 8 7 8 10 13 13 4 3 7 5 4 5 7 8 8 9 10 9 8 7 6 4 4 3 3 4 5 5 6 5 5 5 6 6 6 7 7
13 12 12 10 7 8 8 8 7 7 9 11 14 5 7 7 4 3 5 5 6 8 10 10 10 10 10 9 7 6 5 5 5 5 5 6 6 7 7 6 6 6 6 7
12 11 11 12 9 10 9 8 7 7 8 10 11 4 6 4 4 3 5 6 8 9 10 11 12 11 11 10 10 9 8 7 6 6 6 6 6 7 7 8 7 7 7 7
9 7 11 6 2 3 8 8 7 8 9 10 11 2 3 1 1 3 6 9 10 11 13 13 12 11 10 9 9 9 9 9 9 8 7 7 7 7 8 8 8 8 8 8
3 6 10 14 15 14 11 9 8 8 7 10 12 7 1 3 5 8 10 12 13 14 14 15 11 9 8 7 8 9 10 10 10 9 8 8 8 9 9 9 9 9 9 9
5 9 13 16 17 15 12 9 9 10 10 10 13 13 7 4 7 10 12 14 16 18 19 15 11 9 8 9 8 8 8 8 9 9 9 9 9 8 9 9 9 9 9 11
10 10 14 16 15 12 7 11 11 10 11 13 15 15 10 7 9 12 15 18 21 21 17 15 14 13 12 10 11 10 9 9 8 9 10 9 8 8 9 9 9 10 10 10
9 12 13 13 14 10 8 12 11 12 12 14 18 16 14 13 14 16 17 21 21 17 18 19 17 14 11 11 10 10 10 9 9 9 10 9 9 9 9 11 10 9 9 9
5 8 7 11 12 7 7 7 10 12 14 17 15 15 16 18 19 18 18 17 18 22 21 18 16 16 15 14 13 11 12 11 11 10 10 10 9 10 9 9 9 8 7 7
2 5 7 8 12 4 6 8 11 15 17 12 15 18 21 22 23 19 18 21 21 21 17 16 18 19 16 15 15 12 12 12 13 13 11 11 10 11 10 9 9 8 7 7
8 8 7 9 12 10 7 11 15 15 12 15 20 21 22 24 20 17 21 22 21 20 17 16 18 17 15 13 12 12 14 14 14 13 12 11 11 11 11 10 9 8 7 7
10 10 9 10 12 5 8 15 16 13 14 20 20 21 22 21 20 21 24 23 20 19 19 17 16 13 11 11 11 13 14 14 14 13 12 12 11 11 11 10 9 9 9 9
7 8 8 9 10 7 13 14 12 12 15 18 20 21 21 22 23 24 23 21 21 20 21 19 14 13 11 11 12 14 14 14 13 13 14 13 12 13 13 10 9 9 9 9
5 6 5 6 7 9 11 12 13 15 17 18 20 22 22 24 25 25 23 21 21 21 19 17 17 16 14 13 13 15 15 14 15 15 15 14 14 12 12 11 10 9 8 9
6 2 5 7 9 13 14 15 16 17 18 19 20 22 23 24 25 25 22 20 20 19 19 18 19 20 19 18 16 16 16 15 15 15 14 13 12 12 11 9 9 9 9 8
3 5 8 10 12 14 13 16 17 18 19 20 21 22 22 24 24 24 20 19 19 19 18 19 19 20 22 20 18 18 16 15 15 14 13 12 11 10 10 9 8 9 8 7
5 6 6 9 11 12 15 16 18 19 20 21 21 22 22 22 23 23 21 19 19 20 20 20 21 21 21 20 20 19 16 14 13 12 11 9 8 8 8 8 8 10 10 9
Wind_Direction
252 251 278 334 335 322 313 312 313 319 32 232 270 288 293 296 299 300 317 334 106 203 213 116 39 4 16 124 138 146 140 136 156 170 175 182 173 186 174 156 124 113 97 20
294 319 330 340 306 290 290 299 303 310 323 306 288 278 280 282 269 287 348 18 27 40 30 27 25 20 23 13 43 88 111 139 183 162 164 146 114 168 161 106 116 147 169 158
203 227 283 290 294 301 309 320 322 321 316 295 279 269 261 258 272 64 50 50 48 51 55 46 36 25 28 24 26 16 61 109 243 148 198 214 138 220 242 188 173 159 144 158
313 304 301 301 311 305 306 323 316 303 291 281 280 281 266 166 84 68 59 56 59 58 57 61 59 55 41 43 36 21 16 28 2 354 328 316 288 263 258 214 173 145 159 191
303 297 295 294 304 304 305 306 292 284 280 279 281 276 209 111 94 70 61 59 60 63 56 54 57 56 48 45 47 38 28 19 5 2 357 336 307 303 306 319 202 158 196 197
308 294 283 294 299 300 306 299 287 277 285 293 323 315 241 124 113 102 80 68 63 63 63 59 57 56 54 50 48 46 41 34 22 15 6 353 334 323 318 318 311 285 246 214
289 303 293 277 300 328 321 306 299 299 286 229 231 259 89 82 85 87 80 70 66 64 62 60 55 52 51 49 47 44 40 34 29 28 15 6 350 336 321 312 299 287 274 257
310 299 278 290 321 325 313 301 300 308 311 297 207 215 101 82 79 81 78 67 57 53 54 55 54 50 45 44 41 39 36 30 25 28 16 13 7 354 345 344 327 311 304 303
306 303 298 303 290 287 303 321 326 315 307 308 304 101 100 90 80 73 67 56 43 32 28 30 31 33 32 30 34 30 26 17 8 6 356 359 3 353 346 337 329 328 329 317
315 315 314 310 296 277 274 306 315 318 319 318 322 75 150 138 119 80 51 35 22 8 5 5 0 358 358 349 352 359 353 344 335 332 331 333 341 330 327 325 332 332 330 324
326 316 309 315 328 328 312 308 321 319 319 319 316 22 64 87 71 46 41 24 2 349 344 340 336 335 330 327 330 337 338 333 325 323 321 320 317 317 315 309 311 317 318 318
344 333 322 318 342 349 322 321 323 316 315 308 309 58 63 74 72 34 347 337 335 327 322 320 319 318 316 318 322 323 323 316 309 305 301 299 300 301 301 301 306 309 307 305
347 329 312 319 8 288 286 301 324 327 318 317 325 34 144 160 15 336 325 328 324 318 313 308 302 298 295 293 291 289 288 284 278 275 271 272 273 277 280 283 287 288 289 291
282 297 301 311 318 323 315 325 350 350 337 330 339 358 263 284 313 328 327 320 314 313 310 306 302 296 291 286 279 274 272 270 272 265 261 259 259 260 262 265 268 271 275 278
331 315 324 316 313 315 320 347 7 5 352 336 334 331 326 316 324 323 319 318 317 314 311 311 316 320 314 305 295 290 283 277 275 271 267 261 256 253 254 256 258 259 263 269
344 323 314 306 309 312 2 29 15 2 350 338 326 321 340 337 328 322 323 323 317 313 320 328 325 319 314 310 304 298 291 283 273 268 269 267 262 259 257 256 257 255 255 257
349 341 324 308 313 315 51 26 11 353 344 337 321 328 348 341 331 326 327 317 313 330 331 323 318 313 305 300 293 287 288 287 283 279 278 273 270 268 262 266 265 260 260 261
5 340 312 304 324 5 69 33 7 341 332 331 341 356 345 331 326 324 314 319 337 329 321 316 312 309 303 300 299 296 297 292 288 284 282 278 273 273 269 263 261 260 260 262
22 329 312 324 334 11 97 35 0 335 320 12 358 339 332 330 321 313 327 335 323 315 312 311 308 304 300 298 297 293 292 291 288 286 283 283 280 278 274 270 266 264 262 262
1 329 302 330 329 344 50 8 350 323 303 12 347 335 332 327 318 321 327 319 315 315 310 304 302 299 296 296 296 291 290 287 285 285 283 282 278 275 273 270 268 269 266 263
345 337 346 341 325 38 21 352 346 330 332 340 333 330 327 323 314 313 316 316 314 309 307 305 302 300 298 297 291 288 288 286 287 288 286 283 278 274 271 267 263 262 263 264
345 353 357 337 329 9 2 350 348 328 329 332 330 327 322 317 314 315 314 313 312 311 310 310 308 306 306 307 303 299 295 294 293 290 285 280 276 274 272 263 260 258 258 260
36 43 336 338 317 336 356 345 345 343 335 330 327 323 320 317 316 316 315 314 314 315 317 319 319 316 314 312 307 300 296 294 290 284 279 275 274 269 266 263 260 258 253 251
101 42 315 319 322 353 348 347 345 340 331 327 324 321 320 318 318 317 317 319 321 324 328 329 324 319 314 310 303 295 293 290 284 279 275 272 270 267 262 256 252 250 249 246
6 351 337 315 346 339 338 343 337 331 330 325 324 322 321 320 319 321 323 327 330 332 332 328 323 316 311 307 301 295 290 285 280 277 273 268 263 261 259 254 246 245 243 244
51 31 346 330 341 327 327 334 332 331 328 327 325 324 325 325 326 329 330 333 334 333 329 324 317 312 308 305 301 297 289 281 275 273 269 262 256 253 249 249 252 236 232 230